Regional Weather Roundup
Issued by NWS New Orleans/Baton Rouge, LA

Home | Current Version | Previous Version | Text Only | Print | Product List | Glossary Off
Versions: 1 2 3 4 5 6 7 8 9 10 11 12 13 14 15 16 17 18 19 20 21 22 23 24 25 26 27 28 29 30 31 32 33 34 35 36 37 38 39 40 41 42 43 44 45 46 47 48 49 50

329
ASUS44 KLIX 160410
RWRLIX
NEW ORLEANS REGIONAL WEATHER ROUNDUP
NATIONAL WEATHER SERVICE NEW ORLEANS LA
1100 PM CDT MON SEP 15 2014

NOTE: "FAIR" INDICATES FEW OR NO CLOUDS BELOW 12,000 FEET WITH NO
      SIGNIFICANT WEATHER AND/OR OBSTRUCTIONS TO VISIBILITY.
      SKY/WX - SKY CONDITION AND SIGNIFICANT WEATHER.
      TMP - AIR TEMPERATURE.     DP    - DEWPOINT TEMPERATURE.
      RH  - RELATIVE HUMIDITY.   PRES  - PRESSURE.
      HI  - HEAT INDEX.          WCI   - WIND CHILL INDEX.

*  THESE STATIONS ARE NOT NWS OR FAA STATIONS AND ARE NOT UNDER
   NWS QUALITY CONTROL.

LAZ038-040-048-061>063-065>067-069-160500-
SOUTHEAST LOUISIANA

CITY           SKY/WX    TMP DP  RH WIND       PRES   REMARKS
N.O. AUDUBON   NOT AVBL
N.O. INTL ARPT CLOUDY    79  76  90 CALM      30.09R
N.O. LAKEFRONT CLOUDY    82  76  81 CALM      30.10R
N.O. DOWNTOWN*   N/A     82  73  74 S3        30.09S
SLIDELL        MOCLDY    78  73  84 CALM      30.08F
BATON ROUGE    PTCLDY    75  74  96 CALM      30.10R
BOOTHVILLE     CLOUDY    82  76  81 SW3       30.10R
BELLE CHASSE   MOCLDY    78  73  84 CALM      30.09R
BOGALUSA*      LGT RAIN  77  73  87 CALM      30.10F
GALLIANO*      NOT AVBL
NEW ROADS*     MOCLDY    77  74  91 CALM      30.11R
GONZALES*        N/A     76  76 100 CALM      30.08S
HAMMOND*       MOCLDY    79  73  83 CALM      30.12R
HOUMA*         CLEAR     76  73  90 CALM      30.09S
PORT FOURCHON*   N/A     82  75  78 CALM      30.13R

$$

MSZ070-080>082-160500-
SOUTHERN MISSISSIPPI

CITY           SKY/WX    TMP DP  RH WIND       PRES   REMARKS
MCCOMB         LGT RAIN  78  75  90 CALM      30.12R
GULFPORT       MOCLDY    79  76  90 CALM      30.08S
BILOXI         MOCLDY    81  76  87 NW2       30.08S
PASCAGOULA     CLOUDY    76  76 100 CALM      30.09R

$$

COASTAL OBSERVATIONS
LAKE AND NEARSHORE STATIONS

STATION/POSITION TIME  TEMP    WIND        PRES    WAVE
                       AIR SEA DIR/SP/G            HT/PER
                 (UTC) (F)     (DEG/KT/KT) (MB)    (FT/S)
PASCAGOULA       0400   81                 1018.3
WAVELAND YACHT   0400   79                 1018.1
GRAND ISLE       0400   83                 1019.6
SOUTHWEST PASS   0400   84                 1019.4
NEW CANAL        0400   82                 1019.3
SHELL BEACH      0400   80                 1018.8

OFFSHORE STATIONS

STATION/POSITION TIME  TEMP    WIND        PRES    WAVE
                       AIR SEA DIR/SP/G            HT/PER
                 (UTC) (F)     (DEG/KT/KT) (MB)    (FT/S)
64 S DAUPHIN ISL 0323   83 86  240/  6/  6 1019.5    3/ 7

$$




USA.gov is the U.S. government's official web portal to all federal, state and local government web resources and services.